Home > Weather > Wailuku > Past weeks

Flag for USA Past Weather in Wailuku, Hawaii, USA — Yesterday and Last 2 Weeks

Now
78 °F

Clear.


Feels Like: 80 °F
Forecast: 73 / 88 °F
Wind: 18 mph from Northeast

Location: Kahului Airport

Current Time: Jun 30, 2016 at 2:27:18 AM

Latest Report: Jun 30, 2016 at 1:54 AM


Visibility: 10 mi

Pressure: 30.03 "Hg

Humidity: 79%

Dew Point: 71 °F

Location of WailukuLocation

Past Weather in Wailuku — Graph

°F

Wailuku Temperature Yesterday

Maximum temperature yesterday: 89 °F (at 2:54 PM)
Minimum temperature yesterday: 70 °F (at 4:54 AM)
Average temperature yesterday: 80 °F

High & Low Weather Summary for the Past Weeks

 TemperatureHumidityPressure
High89 °F (Jun 21, 11:54 AM)97% (Jun 17, 2:54 AM)30.19 "Hg (Jun 17, 2:54 AM)
Low68 °F (Jun 21, 4:54 AM)46% (Jun 18, 3:54 PM)29.96 "Hg (Jun 18, 4:54 PM)
Average78 °F71%30.05 "Hg
* Reported Jun 15 12:54 AM — Jun 30 12:54 AM, Wailuku, Weather by CustomWeather, © 2016

Note: Actual official high and low records may vary slightly from our data, if they occured in-between our weather recording intervals... More about our weather records

Advertising

Wailuku Weather History for the Previous 24 Hours

Scroll right to see more
 ConditionsComfort  
Time TempWeatherWind HumidityBarometerVisibility
12:54 AM
Thu, Jun 30
78 °FClear.22 mph79%30.04 "Hg10 mi
11:54 PM
Wed, Jun 29
78 °FPassing clouds.12 mph79%30.06 "Hg10 mi
10:54 PM79 °FPassing clouds.13 mph74%30.08 "Hg10 mi
9:54 PM78 °FPassing clouds.12 mph79%30.07 "Hg10 mi
8:54 PM78 °FPassing clouds.12 mph79%30.06 "Hg10 mi
7:54 PM79 °FPassing clouds.15 mph74%30.05 "Hg10 mi
6:54 PM81 °FScattered clouds.13 mph67%30.03 "Hg10 mi
5:54 PM83 °FScattered clouds.7 mph65%30.00 "Hg10 mi
4:54 PM87 °FScattered clouds.20 mph57%29.99 "Hg10 mi
3:54 PM88 °FScattered clouds.20 mph55%29.99 "Hg10 mi
2:54 PM89 °FScattered clouds.22 mph53%30.01 "Hg10 mi
1:54 PM88 °FScattered clouds.22 mph57%30.03 "Hg10 mi
12:54 PM88 °FScattered clouds.28 mph59%30.02 "Hg10 mi
9:54 AM86 °FScattered clouds.13 mph55%30.06 "Hg10 mi
8:54 AM82 °FScattered clouds.16 mph66%30.05 "Hg10 mi
7:54 AM80 °FScattered clouds.8 mph74%30.06 "Hg10 mi
6:54 AM78 °FSunny.14 mph82%30.05 "Hg10 mi
5:54 AM75 °FPassing clouds.9 mph88%30.03 "Hg10 mi
4:54 AM70 °FClear.5 mph90%30.03 "Hg10 mi
3:54 AM72 °FClear.5 mph87%30.03 "Hg10 mi
2:54 AM74 °FPassing clouds.No wind85%30.02 "Hg10 mi
Weather by CustomWeather, © 2016

See weather overviewHow to use our weather pages